This demonstration page uses our WeatherBlox Daily Observations layout. Learn more.

Left ArrowRight Arrow

Hourly Observations for April 24, 2020

Temp ( °F °C ) Dew Point ( °F °C ) Humidity (%) Winds ( mph kmh ) Pressure ( in mb ) Visibility ( mi km ) Precip ( " mm )
12:15 am 00:15 Clear 51 10.5 42 5.7 72 72 NE 9 15 29.75 1007 10 16 N/A
12:35 am 00:35 Clear 51 10.5 43 6 74 74 NE 10 17 29.74 1007 10 16 N/A
12:55 am 00:55 Clear 50 10.1 43 6 76 76 ENE 8 13 29.74 1007 10 16 N/A
1:15 am 01:15 Partly Cloudy 49 9.6 43 5.9 78 78 ENE 8 13 29.76 1008 10 16 N/A
1:35 am 01:35 Mostly Cloudy 49 9.7 43 6 78 78 N 7 11 29.77 1008 10 16 N/A
1:55 am 01:55 Mostly Cloudy 49 9.7 43 6.1 78 78 NNW 9 15 29.79 1009 10 16 N/A
2:15 am 02:15 Partly Cloudy 52 11 43 6.1 72 72 NNW 9 15 29.77 1008 10 16 N/A
2:35 am 02:35 Clear 52 11.3 42 5.8 69 69 N 7 11 29.77 1008 10 16 N/A
2:55 am 02:55 Partly Cloudy 52 10.9 42 5.6 70 70 N 6 9 29.77 1008 10 16 N/A
3:15 am 03:15 Partly Cloudy 51 10.6 42 5.5 71 71 N 7 11 29.78 1008 10 16 N/A
3:35 am 03:35 Mostly Cloudy 51 10.5 42 5.7 72 72 N 7 11 29.78 1008 10 16 N/A
3:55 am 03:55 Cloudy 51 10.5 43 5.9 73 73 N 6 9 29.78 1008 10 16 N/A
4:15 am 04:15 Cloudy 52 11 43 6.1 72 72 NNW 7 11 29.78 1009 10 16 N/A
4:35 am 04:35 Cloudy with Light Rain 52 11.1 44 6.5 74 74 NNW 8 13 29.78 1009 10 16 N/A
4:55 am 04:55 Cloudy 52 11 44 6.6 75 75 NNW 10 17 29.79 1009 10 16 N/A
5:15 am 05:15 Cloudy with Light Rain 52 11.1 45 7.1 77 77 N 9 15 29.80 1009 10 16 N/A
5:35 am 05:35 Cloudy 52 11 46 7.5 79 79 N 9 15 29.80 1009 10 16 N/A
5:55 am 05:55 Cloudy with Light Rain 51 10.6 46 7.9 84 84 N 14 22 29.81 1009 10 16 N/A
6:15 am 06:15 Cloudy with Drizzle 50 10.2 47 8.3 88 88 N 14 22 29.82 1010 10 16 N/A
6:35 am 06:35 Cloudy with Light Rain 50 10 47 8.3 89 89 N 13 20 29.81 1010 10 16 0.01 0.25
6:55 am 06:55 Cloudy 50 10 47 8.5 91 91 N 13 20 29.82 1010 10 16 0.01 0.25
7:15 am 07:15 Cloudy with Rain 50 10 47 8.5 91 91 N 14 22 29.83 1010 10 16 0.01 0.25
7:35 am 07:35 Cloudy with Drizzle 50 10 47 8.5 91 91 N 14 22 29.85 1011 10 16 0.01 0.25
7:55 am 07:55 Cloudy with Light Rain 50 9.8 47 8.3 90 90 N 15 24 29.86 1011 10 16 0.01 0.25
8:15 am 08:15 Cloudy with Light Rain 50 10 47 8.6 91 91 NNW 13 20 29.87 1012 10 16 0.01 0.25
8:35 am 08:35 Cloudy 51 10.3 48 8.7 90 90 NNW 13 20 29.88 1012 10 16 0.01 0.25
8:55 am 08:55 Cloudy with Light Rain 50 10 47 8.5 91 91 NNW 14 22 29.89 1012 10 16 0.01 0.25
9:15 am 09:15 Cloudy with Drizzle 50 10 48 8.7 92 92 N 12 19 29.89 1012 10 16 0.01 0.25
9:35 am 09:35 Cloudy with Drizzle 50 10 48 9 94 94 N 10 17 29.89 1012 10 16 0.01 0.25
9:55 am 09:55 Cloudy with Rain 50 10 48 9 94 94 N 14 22 29.89 1012 10 16 0.02 0.51
10:15 am 10:15 Cloudy with Drizzle 50 10 49 9.2 95 95 N 14 22 29.89 1012 10 16 0.01 0.25
10:35 am 10:35 Cloudy with Light Rain 50 10.1 49 9.2 94 94 N 13 20 29.90 1013 10 16 0.01 0.25
10:55 am 10:55 Cloudy with Rain 50 10 48 9.1 94 94 N 16 26 29.90 1013 5 8 0.05 1.27
11:15 am 11:15 Cloudy with Rain 50 10 48 9.1 94 94 N 14 22 29.91 1013 7 11 0.03 0.76
11:35 am 11:35 Cloudy with Light Rain 50 10.2 49 9.3 94 94 N 16 26 29.92 1013 10 16 0.04 1.02
11:55 am 11:55 Cloudy with Light Rain 51 10.5 49 9.3 92 92 N 17 28 29.93 1013 10 16 0.04 1.02
12:15 pm 12:15 Cloudy with Drizzle 52 10.9 49 9.6 92 92 N 15 24 29.92 1013 10 16 N/A
12:35 pm 12:35 Cloudy 53 11.6 49 9.4 86 86 N 15 24 29.92 1013 10 16 N/A
12:55 pm 12:55 Cloudy 54 12.3 49 9.7 84 84 N 14 22 29.91 1013 10 16 N/A
1:15 pm 13:15 Cloudy 55 12.5 50 10.1 85 85 N 15 24 29.91 1013 10 16 N/A
1:35 pm 13:35 Cloudy 54 12.4 50 9.8 84 84 N 17 28 29.91 1013 10 16 N/A
1:55 pm 13:55 Cloudy 56 13.3 50 9.9 80 80 N 16 26 29.90 1013 10 16 N/A
2:15 pm 14:15 Cloudy 58 14.6 49 9.5 72 72 N 18 30 29.89 1012 10 16 N/A
2:35 pm 14:35 Mostly Cloudy 59 15 49 9.5 70 70 N 17 28 29.88 1012 10 16 N/A
2:55 pm 14:55 Mostly Cloudy 59 14.8 48 9.1 69 69 NNE 18 30 29.88 1012 10 16 N/A
3:15 pm 15:15 Cloudy with Rain 55 12.8 48 9.1 78 78 N 18 30 29.91 1013 7 11 N/A
3:35 pm 15:35 Mostly Cloudy 58 14.3 50 10 76 76 N 17 28 29.89 1012 10 16 N/A
3:55 pm 15:55 Mostly Cloudy 59 15 47 8.1 64 64 N 21 33 29.88 1012 10 16 N/A
4:15 pm 16:15 Partly Cloudy 59 15.1 46 8 63 63 N 17 28 29.88 1012 10 16 N/A
4:35 pm 16:35 Partly Cloudy 61 15.9 46 7.7 58 58 N 18 30 29.87 1012 10 16 N/A
4:55 pm 16:55 Mostly Cloudy 60 15.3 46 7.5 60 60 N 20 31 29.88 1012 10 16 N/A
5:15 pm 17:15 Partly Cloudy 61 16.3 44 6.9 54 54 N 16 26 29.88 1012 10 16 N/A
5:35 pm 17:35 Partly Cloudy 62 16.6 43 6.2 50 50 N 16 26 29.87 1011 10 16 N/A
5:55 pm 17:55 Partly Cloudy 61 16.3 44 6.5 53 53 N 15 24 29.88 1012 10 16 N/A
6:15 pm 18:15 Mostly Cloudy 61 16.3 43 5.9 50 50 NNE 16 26 29.88 1012 10 16 N/A
6:35 pm 18:35 Partly Cloudy 61 16.3 42 5.6 49 49 N 13 20 29.89 1012 10 16 N/A
6:55 pm 18:55 Sunny 61 16.3 42 5.5 49 49 N 10 17 29.89 1012 10 16 N/A
7:15 pm 19:15 Sunny 60 15.3 41 4.9 50 50 N 13 20 29.91 1013 10 16 N/A
7:35 pm 19:35 Partly Cloudy 59 15.1 42 5.7 54 54 N 7 11 29.91 1013 10 16 N/A
7:55 pm 19:55 Partly Cloudy 57 13.8 42 5.4 57 57 N 7 11 29.94 1014 10 16 N/A
8:15 pm 20:15 Sunny 54 12.3 43 6 66 66 NW 9 15 29.95 1014 10 16 N/A
8:35 pm 20:35 Clear 52 11.2 43 6 71 71 NW 7 11 29.97 1015 10 16 N/A
8:55 pm 20:55 Mostly Cloudy 52 10.9 44 6.5 75 75 NW 6 9 29.98 1015 10 16 N/A
9:15 pm 21:15 Cloudy 50 10 44 6.5 79 79 NW 6 9 29.99 1016 10 16 N/A
9:35 pm 21:35 Partly Cloudy 49 9.5 43 6.3 81 81 NW 7 11 30.01 1016 10 16 N/A
9:55 pm 21:55 Clear 48 9.1 43 6 81 81 NW 6 9 30.02 1017 10 16 N/A
10:15 pm 22:15 Clear 47 8.5 42 5.7 83 83 WNW 7 11 30.03 1017 10 16 N/A
10:35 pm 22:35 Clear 48 9 43 5.9 81 81 WNW 7 11 30.03 1017 10 16 N/A
10:55 pm 22:55 Clear 46 7.9 42 5.3 84 84 NW 8 13 30.04 1017 10 16 N/A
11:15 pm 23:15 Clear 46 7.9 42 5.7 86 86 NW 9 15 30.05 1018 10 16 N/A
11:35 pm 23:35 Clear 47 8.3 42 5.5 83 83 WNW 8 13 30.06 1018 10 16 N/A
11:55 pm 23:55 Clear 47 8.5 42 5.5 82 82 WNW 9 15 30.06 1018 10 16 N/A

Powered by AerisWeather